DW9375 Weather Reports


time (UTC)temp
C
wind
direction
speed
KPH
gust
KPH
rain 1hr
cm
rain 24hr
cm
rain mn
cm
humidity
%
barometer
mb
20200221023018 3 261 17.7 0.0 0.00 0.00 0.05 84 1019.0
20200221022018 3 257 14.5 0.0 0.00 0.00 0.05 84 1018.9
20200221021018 4 268 17.7 0.0 0.00 0.00 0.05 84 1018.7
20200221020018 4 255 12.9 0.0 0.00 0.00 0.05 84 1018.5
20200221014032 4 270 16.1 0.0 0.00 0.00 0.05 84 1018.3
20200221013052 4 269 14.5 0.0 0.00 0.00 0.05 84 1018.1
20200221012121 4 238 17.7 0.0 0.00 0.00 0.05 84 1017.9
20200221003109 4 284 19.3 0.0 0.00 0.00 0.05 87 1016.7
20200221002101 4 265 19.3 0.0 0.00 0.00 0.05 87 1016.4
20200221000053 4 254 20.9 0.0 0.00 0.00 0.05 86 1015.9
20200220235031 4 246 17.7 29.0 0.00 0.00 0.05 87 1015.6
20200220234053 4 283 20.9 33.8 0.00 0.00 0.05 87 1015.3
20200220233102 4 290 20.9 0.0 0.00 0.00 0.05 88 1015.0
20200220231120 5 266 37.0 37.0 0.00 0.00 0.05 90 1014.4
20200220225114 5 282 27.4 37.0 0.00 0.00 0.64 90 1013.7
20200220221110 5 284 24.1 0.0 0.00 0.00 0.61 90 1012.6
20200220214053 6 255 11.3 0.0 0.00 0.00 0.56 90 1011.5
20200220212015 6 281 16.1 32.2 0.00 0.00 0.53 89 1010.7
20200220210015 6 274 25.7 43.5 0.00 0.00 0.51 88 1010.4
20200220204015 7 289 17.7 38.6 0.00 0.00 0.46 89 1009.3
20200220202015 7 184 12.9 30.6 0.00 0.00 0.25 88 1007.8
20200220192015 8 183 14.5 29.0 0.00 0.00 0.03 82 1008.1
20200220185015 9 226 17.7 32.2 0.00 0.00 0.00 76 1008.3
20200220184015 9 205 19.3 33.8 0.00 0.00 0.00 75 1008.4
20200220183016 9 226 17.7 37.0 0.00 0.00 0.00 74 1008.5
20200220182015 9 225 25.7 37.0 0.00 0.00 0.00 73 1008.7
20200220181015 9 211 17.7 29.0 0.00 0.00 0.00 73 1008.9
20200220180015 9 242 12.9 35.4 0.00 0.00 0.00 74 1009.0
20200220175015 8 186 14.5 27.4 0.00 0.00 0.00 75 1008.9
20200220174015 8 207 8.0 30.6 0.00 0.00 0.00 75 1009.1
20200220173015 8 171 16.1 0.0 0.00 0.00 0.00 75 1009.3
20200220172015 8 205 16.1 0.0 0.00 0.00 0.00 75 1009.5
20200220170015 8 183 11.3 0.0 0.00 0.00 0.00 76 1010.0
20200220164015 8 217 9.7 29.0 0.00 0.00 0.00 75 1010.4
20200220163015 8 204 16.1 0.0 0.00 0.00 0.00 77 1010.5
20200220162015 8 218 17.7 0.0 0.00 0.00 0.00 78 1010.7
20200220161015 8 227 16.1 0.0 0.00 0.00 0.00 78 1010.9
20200220155015 8 229 11.3 25.7 0.00 0.00 0.00 78 1011.2
20200220154015 8 187 8.0 0.0 0.00 0.00 0.00 79 1011.4
20200220152015 8 232 17.7 0.0 0.00 0.00 0.00 79 1011.7
20200220150015 9 219 16.1 33.8 0.00 0.00 0.00 78 1012.0
20200220145015 9 235 8.0 30.6 0.00 0.00 0.00 77 1012.2
20200220141015 10 244 12.9 22.5 0.00 0.00 0.00 75 1012.5
20200220140015 10 233 8.0 0.0 0.00 0.00 0.00 74 1012.4
20200220135015 10 234 9.7 30.6 0.00 0.00 0.00 74 1012.4
20200220134015 10 227 24.1 29.0 0.00 0.00 0.00 74 1012.7
20200220132015 10 227 8.0 32.2 0.00 0.00 0.00 75 1013.2
20200220130015 10 229 11.3 27.4 0.00 0.00 0.00 75 1013.5
20200220125015 10 250 12.9 24.1 0.00 0.00 0.00 74 1013.6
20200220124018 10 209 12.9 0.0 0.00 0.00 0.00 74 1013.8
20200220123015 10 234 8.0 29.0 0.00 0.00 0.00 75 1013.8
20200220122015 9 244 14.5 27.4 0.00 0.00 0.00 79 1013.9
20200220120015 8 216 11.3 0.0 0.00 0.00 0.00 81 1014.4
20200220115015 9 211 8.0 29.0 0.00 0.00 0.00 78 1014.6
20200220114015 9 240 22.5 30.6 0.00 0.00 0.00 79 1014.6
20200220113015 9 253 16.1 27.4 0.00 0.00 0.00 77 1014.9
20200220112015 10 269 16.1 0.0 0.00 0.00 0.00 75 1014.9
20200220111015 10 225 19.3 30.6 0.00 0.00 0.00 76 1015.0
20200220104015 9 220 12.9 30.6 0.00 0.00 0.00 76 1015.3
20200220095015 10 191 16.1 29.0 0.00 0.00 0.00 74 1015.4
20200220093015 9 208 22.5 29.0 0.00 0.00 0.00 78 1015.3
20200220092015 8 213 11.3 0.0 0.00 0.00 0.00 79 1015.5
20200220091015 8 209 9.7 25.7 0.00 0.00 0.00 79 1015.4
20200220085015 8 194 12.9 35.4 0.00 0.00 0.00 80 1015.7
20200220083015 8 246 16.1 27.4 0.00 0.00 0.00 81 1015.9
20200220080015 8 226 24.1 27.4 0.00 0.00 0.00 82 1015.9
20200220073015 7 225 14.5 25.7 0.00 0.00 0.00 83 1015.9
20200220072015 7 176 12.9 0.0 0.00 0.00 0.00 83 1015.9
20200220065015 7 184 6.4 25.7 0.00 0.00 0.00 84 1016.0
20200220064015 7 194 9.7 25.7 0.00 0.00 0.00 84 1016.0
20200220062015 7 206 9.7 25.7 0.00 0.00 0.00 84 1016.1
20200220060015 7 199 12.9 0.0 0.00 0.00 0.00 84 1016.1
20200220055015 7 139 14.5 0.0 0.00 0.00 0.00 84 1016.2
20200220054015 7 196 11.3 22.5 0.00 0.00 0.00 84 1016.4
20200220053015 7 180 6.4 24.1 0.00 0.00 0.00 84 1016.4
20200220052015 6 214 17.7 0.0 0.00 0.00 0.00 85 1016.5
20200220050015 6 205 6.4 0.0 0.00 0.00 0.00 85 1016.5
20200220045015 6 186 19.3 24.1 0.00 0.00 0.00 85 1016.6
20200220044015 6 222 11.3 0.0 0.00 0.00 0.00 86 1016.6
20200220043015 6 192 12.9 0.0 0.00 0.00 0.00 86 1016.7
20200220042015 6 206 9.7 0.0 0.00 0.00 0.00 86 1016.7
20200220041015 6 216 14.5 24.1 0.00 0.00 0.00 86 1016.7
20200220040015 6 207 11.3 0.0 0.00 0.00 0.00 86 1016.8
20200220030015 6 199 11.3 0.0 0.00 0.00 0.00 86 1017.1